[[{"header":{"parameterUnit":"m.s-1","parameterCategory":2,"la1":30.2991,"la2":30.254,"lo1":-89.0895,"lo2":-89.0444,"dy":0.0017,"dx":0.0017,"nx":28,"ny":28,"refTime":"2026-02-11T09:00:00:Z","depth":"0","parameterNumber":2,"parameterNumberName":"U-component_of_CURRENTS"},"data":[0,0,0,0,0,0,0,0,0,0,0,0,0,0,0,0,0,0,0,0,0,0,0,0,0,0,0,0,0,0,0,0,0,0,0,0,0,0,0,0,0,0,0,0,0,0,0,0,0,0,0,0,0,0,0,0,0,0,-0.2602,-0.2602,0,-0.262,-0.262,-0.262,-0.259,-0.2589,-0.2588,-0.2588,-0.2561,-0.2561,-0.2561,0,0,0,0,0,0,0,0,0,0,0,0,0,-0.2545,-0.2546,-0.2601,-0.2602,-0.2602,-0.262,-0.262,-0.262,-0.259,-0.2589,-0.2588,-0.2587,-0.2561,-0.2561,-0.2561,0,0,0,0,0,0,0,0,0,0,0,0,0,-0.2565,-0.2546,-0.2601,-0.2591,-0.2591,-0.262,-0.262,-0.262,-0.259,-0.2589,-0.2588,-0.2587,-0.2561,-0.2561,-0.2561,-0.2586,0,0,-0.2561,-0.2561,0,0,0,0,0,0,0,0,-0.2564,-0.2567,-0.2592,-0.2592,-0.2591,-0.2603,-0.259,-0.2607,-0.2591,-0.2588,-0.2588,-0.2586,-0.2573,-0.2572,-0.2576,-0.2585,-0.2584,-0.2561,-0.2561,-0.2561,-0.2561,0,0,0,0,0,0,0,-0.2563,-0.2566,-0.2607,-0.2593,-0.2592,-0.2587,-0.2588,-0.2593,-0.2585,-0.2588,-0.2587,-0.2592,-0.2572,-0.2576,-0.2575,-0.2584,-0.2561,-0.2561,-0.2561,-0.2561,-0.2596,-0.2597,0,0,0,0,0,0,-0.2566,-0.2565,-0.2606,-0.2607,-0.2577,-0.2589,-0.259,-0.2599,-0.2586,-0.2584,-0.2594,-0.2591,-0.2576,-0.2575,-0.2574,-0.2587,-0.2561,-0.2561,-0.2561,-0.2595,-0.2596,-0.2597,0,0,0,0,0,0,-0.2565,-0.257,-0.2605,-0.2588,-0.2592,-0.2592,-0.2601,-0.26,-0.2598,-0.2591,-0.2587,-0.2592,-0.2575,-0.2574,-0.2578,-0.2586,-0.2561,-0.2561,-0.2594,-0.2595,-0.2596,-0.2623,0,0,0,0,0,0,-0.2563,-0.2569,-0.2572,-0.2588,-0.2593,-0.2623,-0.2603,-0.2601,-0.2604,-0.2601,-0.2588,-0.2585,-0.2574,-0.2578,-0.2578,-0.2586,-0.2562,-0.2593,-0.2594,-0.2596,-0.2621,-0.2625,-0.2629,0,0,0,0,0,-0.2561,-0.2573,-0.2572,-0.2577,-0.2599,-0.2624,-0.2626,-0.262,-0.2606,-0.2611,-0.2602,-0.2585,-0.2588,-0.2579,-0.2579,-0.2586,-0.2592,-0.2594,-0.2596,-0.2619,-0.2624,-0.2628,0,0,0,0,0,0,-0.2546,-0.2572,-0.2571,-0.2588,-0.2605,-0.262,-0.2623,-0.2622,-0.2621,-0.2612,-0.2598,-0.2596,-0.2603,-0.2596,-0.2586,-0.2602,-0.2587,-0.2589,-0.2605,-0.2609,-0.2613,-0.2611,-0.2562,0,0,0,0,0,-0.2548,-0.2559,-0.2585,-0.2595,-0.2606,-0.2614,-0.2621,-0.2622,-0.2627,-0.2624,-0.2617,-0.2611,-0.2615,-0.2611,-0.2614,-0.2624,-0.2603,-0.2629,-0.2633,-0.2636,-0.2635,-0.2621,-0.2623,-0.2603,-0.2603,-0.2603,0,0,-0.2542,-0.2558,-0.2563,-0.2593,-0.2601,-0.2624,-0.2614,-0.263,-0.2642,-0.2623,-0.2629,-0.2627,-0.2622,-0.2633,-0.2635,-0.2624,-0.2628,-0.2638,-0.2641,-0.2638,-0.2623,-0.2625,-0.2626,-0.2604,-0.2604,-0.2604,0,0,-0.2542,-0.2555,-0.2566,-0.2588,-0.2612,-0.2625,-0.2631,-0.265,-0.2651,-0.2667,-0.2655,-0.2656,-0.2661,-0.2658,-0.2658,-0.2686,-0.2653,-0.2687,-0.2698,-0.2685,-0.2686,-0.2687,-0.265,-0.2648,-0.2684,-0.2684,-0.2684,0,-0.2533,-0.2554,-0.2573,-0.2596,-0.2612,-0.2627,-0.2646,-0.2661,-0.2677,-0.2681,-0.267,-0.268,-0.2673,-0.2685,-0.2692,-0.2693,-0.2672,-0.2679,-0.2688,-0.2689,-0.2689,-0.2652,-0.2648,-0.2685,-0.2685,-0.2685,-0.2685,0,-0.2545,-0.2565,-0.2575,-0.2608,-0.263,-0.2651,-0.268,-0.2696,-0.2699,-0.2708,-0.272,-0.2716,-0.2716,-0.2719,-0.2712,-0.2717,-0.2696,-0.2697,-0.2673,-0.2692,-0.2652,-0.2648,-0.2687,-0.2687,-0.2686,-0.2686,0,0,-0.2511,-0.2572,-0.2572,-0.259,-0.2639,-0.2655,-0.269,-0.272,-0.273,-0.2745,-0.275,-0.2762,-0.2753,-0.2752,-0.2745,-0.2734,-0.2713,-0.2715,-0.2713,-0.2672,-0.2663,-0.2568,-0.2554,-0.2714,-0.2713,-0.2713,-0.263,0,-0.2509,-0.2547,-0.2583,-0.2615,-0.2636,-0.2676,-0.2705,-0.2735,-0.2751,-0.2761,-0.2765,-0.2767,-0.2769,-0.2761,-0.2755,-0.2729,-0.2705,-0.2734,-0.2657,-0.2654,-0.2562,-0.2548,-0.245,-0.236,-0.2626,-0.2625,-0.2624,0,-0.2501,-0.253,-0.2561,-0.2617,-0.2629,-0.2652,-0.2693,-0.2723,-0.2756,-0.2768,-0.278,-0.278,-0.2777,-0.2766,-0.2731,-0.2748,-0.2706,-0.268,-0.2676,-0.2575,-0.2552,-0.2388,-0.2343,-0.2323,-0.2618,-0.2618,-0.2619,0,-0.2447,-0.251,-0.2529,-0.255,-0.2619,-0.2635,-0.2667,-0.2712,-0.2737,-0.2761,-0.2773,-0.2777,-0.2769,-0.2738,-0.2693,-0.2709,-0.2632,-0.2647,-0.2519,-0.2511,-0.2405,-0.2388,-0.2325,-0.2606,-0.2606,-0.2606,-0.2606,0,-0.2423,-0.2436,-0.2504,-0.2513,-0.2536,-0.2596,-0.2618,-0.2657,-0.2705,-0.2725,-0.2762,-0.2768,-0.2762,-0.2726,-0.2683,-0.2577,-0.2622,-0.2507,-0.2481,-0.241,-0.2395,-0.2355,-0.2385,-0.2603,-0.2604,-0.2604,-0.2605,0,-0.235,-0.24,-0.2424,-0.249,-0.2508,-0.2518,-0.259,-0.2608,-0.2668,-0.2693,-0.2701,-0.275,-0.2699,-0.2665,-0.2599,-0.2548,-0.241,-0.2412,-0.2314,-0.2278,-0.2135,-0.2171,-0.2078,-0.2014,-0.2255,-0.2252,-0.225,0,-0.2312,-0.2316,-0.2383,-0.2393,-0.2417,-0.2451,-0.2475,-0.2564,-0.2593,-0.2674,-0.2676,-0.2662,-0.2612,-0.2484,-0.2388,-0.2262,-0.2282,-0.2112,-0.2125,-0.2095,-0.2118,-0.2154,-0.211,-0.1994,-0.199,-0.1986,-0.1983,0,-0.2227,-0.2252,-0.227,-0.2296,-0.232,-0.2354,-0.24,-0.2427,-0.2526,-0.2547,-0.2555,-0.2519,-0.2423,-0.2256,-0.2115,-0.204,-0.2058,-0.2033,-0.2035,-0.1925,-0.1928,-0.1864,-0.208,-0.1952,-0.1955,-0.1957,-0.1959,-0.196,-0.2144,-0.2138,-0.2163,-0.2174,-0.2205,-0.2221,-0.2206,-0.2269,-0.2284,-0.2284,-0.236,-0.2268,-0.2176,-0.1955,-0.1869,-0.1719,-0.1804,-0.1678,-0.1726,-0.1767,-0.1695,-0.1822,-0.165,-0.1651,-0.1653,-0.1654,-0.1655,0,-0.2024,-0.2028,-0.2038,-0.2046,-0.2025,-0.2087,-0.2121,-0.2079,-0.2038,-0.2067,-0.2026,-0.1943,-0.1767,-0.1698,-0.1553,-0.1457,-0.1433,-0.1429,-0.1479,-0.145,-0.1575,-0.1551,-0.1309,-0.1309,-0.1309,-0.1309,-0.131,-0.131,-0.1961,-0.192,-0.1927,-0.1849,-0.1852,-0.1779,-0.1764,-0.172,-0.1709,-0.1622,-0.1596,-0.1609,-0.1572,-0.162,-0.146,-0.1366,-0.1344,-0.1289,-0.1323,-0.1449,-0.1477,-0.1504,-0.1488,-0.1237,-0.1237,-0.1138,-0.1138,-0.1137]},{"header":{"parameterUnit":"m.s-1","parameterCategory":2,"la1":30.2991,"la2":30.254,"lo1":-89.0895,"lo2":-89.0444,"dy":0.0017,"dx":0.0017,"nx":28,"ny":28,"refTime":"2026-02-11T09:00:00:Z","depth":"0","parameterNumber":3,"parameterNumberName":"V-component_of_CURRENTS"},"data":[0,0,0,0,0,0,0,0,0,0,0,0,0,0,0,0,0,0,0,0,0,0,0,0,0,0,0,0,0,0,0,0,0,0,0,0,0,0,0,0,0,0,0,0,0,0,0,0,0,0,0,0,0,0,0,0,0,0,-0.0289,-0.0288,0,-0.0221,-0.022,-0.0219,-0.0167,-0.0166,-0.0166,-0.0166,-0.0053,-0.0051,-0.0048,0,0,0,0,0,0,0,0,0,0,0,0,0,-0.0331,-0.0331,-0.0289,-0.0288,-0.0288,-0.0221,-0.022,-0.0218,-0.0167,-0.0166,-0.0166,-0.0166,-0.0054,-0.0051,-0.0048,0,0,0,0,0,0,0,0,0,0,0,0,0,-0.0291,-0.0331,-0.0289,-0.0255,-0.0251,-0.0221,-0.022,-0.0218,-0.0167,-0.0166,-0.0166,-0.0166,-0.0055,-0.0051,-0.0047,-0.0032,0,0,-0.0035,-0.0033,0,0,0,0,0,0,0,0,-0.0294,-0.029,-0.0261,-0.0257,-0.0253,-0.0203,-0.0193,-0.0154,-0.0167,-0.0197,-0.0166,-0.0165,-0.0101,-0.0093,-0.0079,-0.0027,-0.0022,-0.0034,-0.0032,-0.003,-0.0029,0,0,0,0,0,0,0,-0.0297,-0.0292,-0.026,-0.026,-0.0255,-0.0228,-0.0222,-0.0185,-0.015,-0.0195,-0.0191,-0.0186,-0.0098,-0.0083,-0.0076,-0.002,-0.0035,-0.0031,-0.0028,-0.0027,0.0067,0.0067,0,0,0,0,0,0,-0.0311,-0.0295,-0.0262,-0.0258,-0.0275,-0.0228,-0.0221,-0.0218,-0.0152,-0.0142,-0.0187,-0.0184,-0.0091,-0.0081,-0.0072,-0.005,-0.003,-0.0026,-0.0024,0.0067,0.0067,0.0067,0,0,0,0,0,0,-0.0313,-0.0309,-0.0265,-0.0276,-0.0269,-0.0229,-0.0225,-0.0217,-0.0203,-0.0147,-0.0135,-0.0181,-0.009,-0.0078,-0.0042,-0.0045,-0.0025,-0.0021,0.0066,0.0067,0.0067,-0.0006,0,0,0,0,0,0,-0.0314,-0.031,-0.0314,-0.0277,-0.0269,-0.0255,-0.0226,-0.0216,-0.0202,-0.0198,-0.0138,-0.0127,-0.0088,-0.0048,-0.0038,-0.0039,-0.0018,0.0066,0.0066,0.0067,-0.0004,-0.0009,-0.0013,0,0,0,0,0,-0.0316,-0.0327,-0.0315,-0.0311,-0.0276,-0.0256,-0.0249,-0.0217,-0.0202,-0.0202,-0.0159,-0.0129,-0.004,-0.0045,-0.0033,-0.0033,0.0066,0.0066,0.0067,-0.0002,-0.0008,-0.0013,0,0,0,0,0,0,-0.0348,-0.0322,-0.0308,-0.031,-0.0288,-0.0248,-0.0246,-0.0224,-0.019,-0.0185,-0.0129,-0.0116,-0.0086,-0.0049,-0.0056,-0.0005,0.0019,0.0021,-0.0038,-0.0043,-0.0047,-0.0061,-0.0014,0,0,0,0,0,-0.0358,-0.0359,-0.0328,-0.033,-0.0322,-0.0285,-0.0273,-0.0253,-0.0219,-0.0203,-0.0162,-0.0115,-0.0076,-0.0052,-0.0013,0.0014,0.0057,0.0023,0.0019,0.0014,0.0012,0.0071,0.0072,0.0067,0.0067,0.0067,0,0,-0.037,-0.0357,-0.0356,-0.0337,-0.0316,-0.0316,-0.0276,-0.0266,-0.026,-0.0196,-0.0176,-0.0131,-0.0072,-0.0043,-0.0026,-0.0013,0.0039,0.0015,0.001,0.001,0.0071,0.0072,0.0072,0.0067,0.0067,0.0067,0,0,-0.0404,-0.0385,-0.04,-0.0387,-0.0366,-0.0341,-0.0342,-0.0306,-0.0285,-0.026,-0.0212,-0.0171,-0.0114,-0.007,-0.0041,-0.0045,0.001,-0.0032,-0.0063,-0.0006,-0.0005,-0.0004,0.0048,0.0054,-0.0032,-0.0032,-0.0032,0,-0.0422,-0.0435,-0.0401,-0.0414,-0.0409,-0.0359,-0.0374,-0.0345,-0.0301,-0.0282,-0.0264,-0.0171,-0.0126,-0.0079,-0.0081,-0.0056,-0.0016,-0.0051,-0.0013,-0.0011,-0.0008,0.0045,0.0053,-0.0035,-0.0035,-0.0034,-0.0034,0,-0.0468,-0.0478,-0.0486,-0.0483,-0.0472,-0.0476,-0.0435,-0.0417,-0.0383,-0.0347,-0.0296,-0.0229,-0.0173,-0.015,-0.0117,-0.0077,-0.0052,-0.003,-0.0004,-0.0012,0.0044,0.0054,-0.004,-0.0039,-0.0038,-0.0037,0,0,-0.0513,-0.0519,-0.0522,-0.0535,-0.051,-0.0507,-0.0493,-0.0463,-0.0448,-0.0393,-0.0364,-0.0293,-0.0248,-0.0212,-0.0157,-0.0106,-0.0057,-0.0068,-0.0063,-0.0025,0.0068,0.0117,0.0133,-0.0028,-0.0027,-0.0026,0.0099,0,-0.0561,-0.0607,-0.0588,-0.0621,-0.064,-0.059,-0.0581,-0.0542,-0.0491,-0.0448,-0.0364,-0.0317,-0.0272,-0.0244,-0.0187,-0.0087,-0.0034,-0.0093,0.0078,0.0083,0.0121,0.0145,0.0183,0.03,0.0109,0.011,0.0111,0,-0.0614,-0.0638,-0.0686,-0.0693,-0.0695,-0.0699,-0.0666,-0.065,-0.0569,-0.0528,-0.0458,-0.0387,-0.0302,-0.0265,-0.0103,-0.0142,-0.0049,0.003,0.0037,0.0116,0.0151,0.028,0.0325,0.0473,0.0127,0.0126,0.0125,0,-0.0671,-0.0703,-0.0745,-0.0749,-0.0747,-0.0749,-0.0737,-0.0676,-0.0656,-0.0573,-0.054,-0.0429,-0.036,-0.0239,-0.0073,-0.009,0.0116,0.0116,0.025,0.0254,0.0338,0.0348,0.0541,0.0228,0.0228,0.0228,0.0227,0,-0.0734,-0.0765,-0.0776,-0.0801,-0.0839,-0.0808,-0.0818,-0.0783,-0.0722,-0.0689,-0.0587,-0.0521,-0.0349,-0.0207,-0.0078,0.0129,0.0118,0.0254,0.0295,0.0314,0.0319,0.0493,0.0547,0.0232,0.0231,0.023,0.023,0,-0.0793,-0.08,-0.0851,-0.0866,-0.0872,-0.0896,-0.0885,-0.0881,-0.0815,-0.0764,-0.0741,-0.0578,-0.0386,-0.0201,0.0025,0.0136,0.0419,0.039,0.0399,0.0439,0.0672,0.0718,0.0952,0.1045,0.054,0.0542,0.0544,0,-0.0827,-0.0862,-0.0907,-0.0939,-0.0951,-0.0975,-0.0987,-0.0937,-0.0921,-0.0786,-0.0762,-0.0565,-0.0403,-0.0054,0.0183,0.0431,0.0541,0.0601,0.0573,0.0706,0.0789,0.0818,0.0881,0.0656,0.0659,0.0661,0.0662,0,-0.0891,-0.0905,-0.0946,-0.1018,-0.1049,-0.1078,-0.1083,-0.1085,-0.1001,-0.0922,-0.077,-0.0625,-0.0271,0.0048,0.0373,0.0519,0.0717,0.0649,0.0798,0.0909,0.0945,0.1047,0.0545,0.0681,0.0679,0.0678,0.0677,0.0676,-0.0926,-0.0974,-0.1027,-0.109,-0.113,-0.1162,-0.1171,-0.1135,-0.1079,-0.0929,-0.0787,-0.0522,-0.0074,0.0398,0.0569,0.0933,0.0891,0.1031,0.108,0.11,0.1186,0.0719,0.0891,0.0891,0.089,0.089,0.0889,0,-0.0967,-0.102,-0.1092,-0.116,-0.1209,-0.1211,-0.1215,-0.1175,-0.1084,-0.0907,-0.0718,-0.0197,0.0239,0.0639,0.1143,0.1346,0.1386,0.1451,0.1507,0.1553,0.1161,0.1161,0.1387,0.1387,0.1387,0.1387,0.1387,0.1387,-0.0989,-0.1067,-0.111,-0.1203,-0.1246,-0.127,-0.1262,-0.116,-0.1022,-0.069,-0.0379,-0.0121,0.0467,0.1238,0.1699,0.1745,0.1922,0.1917,0.2008,0.1735,0.1699,0.1664,0.168,0.2011,0.2012,0.2389,0.2393,0.2396]}],[{"header":{"parameterUnit":"m.s-1","parameterCategory":2,"la1":30.2991,"la2":30.254,"lo1":-89.0895,"lo2":-89.0444,"dy":0.0017,"dx":0.0017,"nx":28,"ny":28,"refTime":"2026-02-11T09:00:00:Z","depth":"2","parameterNumber":2,"parameterNumberName":"U-component_of_CURRENTS"},"data":[0,0,0,0,0,0,0,0,0,0,0,0,0,0,0,0,0,0,0,0,0,0,0,0,0,0,0,0,0,0,0,0,0,0,0,0,0,0,0,0,0,0,0,0,0,0,0,0,0,0,0,0,0,0,0,0,0,0,-0.2276,-0.2277,0,-0.2307,-0.2308,-0.2308,-0.2289,-0.2288,-0.2287,-0.2287,-0.2277,-0.2278,-0.2278,0,0,0,0,0,0,0,0,0,0,0,0,0,-0.2212,-0.2213,-0.2276,-0.2277,-0.2277,-0.2307,-0.2308,-0.2308,-0.2289,-0.2288,-0.2287,-0.2286,-0.2277,-0.2278,-0.2278,0,0,0,0,0,0,0,0,0,0,0,0,0,-0.2239,-0.2213,-0.2276,-0.2273,-0.2273,-0.2307,-0.2308,-0.2308,-0.2289,-0.2288,-0.2287,-0.2286,-0.2277,-0.2278,-0.2278,-0.2305,0,0,-0.228,-0.2281,0,0,0,0,0,0,0,0,-0.2238,-0.2242,-0.2273,-0.2273,-0.2273,-0.2295,-0.2282,-0.2306,-0.2289,-0.2281,-0.2286,-0.2285,-0.2281,-0.2282,-0.2288,-0.2305,-0.2304,-0.228,-0.2281,-0.2281,-0.2281,0,0,0,0,0,0,0,-0.2236,-0.224,-0.2287,-0.2273,-0.2274,-0.2274,-0.2276,-0.2286,-0.2285,-0.2282,-0.2281,-0.2287,-0.2281,-0.2287,-0.2288,-0.2304,-0.228,-0.2281,-0.2281,-0.2282,-0.2339,-0.234,0,0,0,0,0,0,-0.2237,-0.2239,-0.2286,-0.2288,-0.2254,-0.2276,-0.2278,-0.2287,-0.2286,-0.2285,-0.2288,-0.2286,-0.2287,-0.2287,-0.2287,-0.2315,-0.2281,-0.2282,-0.2282,-0.2338,-0.2339,-0.234,0,0,0,0,0,0,-0.2235,-0.2241,-0.2285,-0.2265,-0.2271,-0.2278,-0.2289,-0.2289,-0.2294,-0.2292,-0.229,-0.2293,-0.2286,-0.2286,-0.23,-0.2314,-0.2282,-0.2283,-0.2336,-0.2338,-0.2339,-0.2373,0,0,0,0,0,0,-0.2233,-0.224,-0.2245,-0.2265,-0.2272,-0.2308,-0.229,-0.229,-0.23,-0.2298,-0.2295,-0.2293,-0.2285,-0.23,-0.2301,-0.2315,-0.2283,-0.2335,-0.2337,-0.2339,-0.2371,-0.2376,-0.238,0,0,0,0,0,-0.2231,-0.2244,-0.2245,-0.2251,-0.2279,-0.2309,-0.2313,-0.2313,-0.2302,-0.2311,-0.2309,-0.2293,-0.2313,-0.2301,-0.2303,-0.2317,-0.2334,-0.2336,-0.2339,-0.2368,-0.2375,-0.238,0,0,0,0,0,0,-0.2217,-0.2244,-0.2245,-0.2265,-0.2287,-0.2306,-0.2315,-0.2318,-0.2325,-0.2319,-0.231,-0.2309,-0.2327,-0.2322,-0.2308,-0.2341,-0.2321,-0.2324,-0.2343,-0.2348,-0.2353,-0.2349,-0.2284,0,0,0,0,0,-0.2219,-0.2233,-0.2261,-0.2275,-0.2287,-0.2302,-0.2313,-0.2318,-0.2329,-0.233,-0.233,-0.2332,-0.2342,-0.2343,-0.2351,-0.2371,-0.2351,-0.2381,-0.2385,-0.2389,-0.2388,-0.2383,-0.2387,-0.2348,-0.2348,-0.2348,0,0,-0.2215,-0.2233,-0.224,-0.2273,-0.2286,-0.2313,-0.2305,-0.2327,-0.2346,-0.2329,-0.2349,-0.2351,-0.2352,-0.2373,-0.238,-0.2367,-0.2388,-0.2393,-0.2396,-0.2392,-0.2386,-0.2389,-0.2392,-0.235,-0.235,-0.2349,0,0,-0.2221,-0.2235,-0.2251,-0.2275,-0.2304,-0.232,-0.2328,-0.2355,-0.2362,-0.2388,-0.238,-0.239,-0.2406,-0.2408,-0.2411,-0.2449,-0.2417,-0.2452,-0.2469,-0.2464,-0.2467,-0.2469,-0.2437,-0.2436,-0.2451,-0.2451,-0.2451,0,-0.2216,-0.2241,-0.226,-0.2287,-0.2306,-0.2325,-0.2351,-0.237,-0.2396,-0.2406,-0.2397,-0.2425,-0.2423,-0.2445,-0.2455,-0.2458,-0.244,-0.2445,-0.2469,-0.247,-0.2472,-0.2439,-0.2437,-0.2453,-0.2452,-0.2452,-0.2452,0,-0.2236,-0.2259,-0.2273,-0.2311,-0.2337,-0.2363,-0.2397,-0.2419,-0.2429,-0.2443,-0.2469,-0.2472,-0.2482,-0.2489,-0.2482,-0.2499,-0.2476,-0.2477,-0.245,-0.2478,-0.2441,-0.2439,-0.2455,-0.2455,-0.2454,-0.2454,0,0,-0.2209,-0.2274,-0.2277,-0.2297,-0.2351,-0.2372,-0.2415,-0.2453,-0.2469,-0.2496,-0.2511,-0.2535,-0.253,-0.2533,-0.2529,-0.2525,-0.2515,-0.2504,-0.2503,-0.2465,-0.2482,-0.2393,-0.2382,-0.2519,-0.2519,-0.2519,-0.2447,0,-0.2215,-0.2261,-0.2297,-0.234,-0.2365,-0.2406,-0.244,-0.2478,-0.2501,-0.2522,-0.2535,-0.2548,-0.255,-0.2547,-0.2549,-0.2526,-0.2513,-0.2533,-0.2468,-0.2465,-0.2377,-0.2378,-0.2218,-0.2134,-0.2445,-0.2444,-0.2444,0,-0.2216,-0.2248,-0.229,-0.2349,-0.2363,-0.2392,-0.2441,-0.2478,-0.2521,-0.2538,-0.2562,-0.2567,-0.2575,-0.2565,-0.2543,-0.2555,-0.2521,-0.2499,-0.2496,-0.2399,-0.2373,-0.2161,-0.2118,-0.244,-0.244,-0.244,-0.2441,0,-0.2171,-0.2239,-0.2267,-0.2289,-0.2362,-0.2383,-0.2419,-0.2473,-0.2501,-0.254,-0.2554,-0.2573,-0.257,-0.2552,-0.2515,-0.2527,-0.2471,-0.248,-0.2367,-0.2359,-0.2202,-0.218,-0.2456,-0.2456,-0.2456,-0.2456,-0.2456,0,-0.2154,-0.2173,-0.2245,-0.2258,-0.2288,-0.2351,-0.2383,-0.2425,-0.2479,-0.25,-0.2549,-0.2557,-0.2568,-0.2544,-0.251,-0.242,-0.2466,-0.2359,-0.2336,-0.2208,-0.2188,-0.2443,-0.2443,-0.2453,-0.2454,-0.2454,-0.2455,0,-0.209,-0.2143,-0.2174,-0.2244,-0.2265,-0.2282,-0.2356,-0.2375,-0.2442,-0.2469,-0.248,-0.2535,-0.25,-0.2487,-0.244,-0.2395,-0.2329,-0.2285,-0.2119,-0.2078,-0.222,-0.2223,-0.2148,-0.2145,-0.2142,-0.2139,-0.2137,0,-0.206,-0.2069,-0.214,-0.2151,-0.2178,-0.222,-0.2244,-0.2334,-0.236,-0.2443,-0.2442,-0.2447,-0.2406,-0.2312,-0.2234,-0.2135,-0.2227,-0.194,-0.1939,-0.2204,-0.2189,-0.2197,-0.2203,-0.1738,-0.1733,-0.1728,-0.1725,0,-0.1987,-0.2013,-0.2035,-0.2061,-0.2086,-0.212,-0.2165,-0.2182,-0.2278,-0.2301,-0.2308,-0.2283,-0.2218,-0.2045,-0.1941,-0.1874,-0.1946,-0.1848,-0.2159,-0.1847,-0.1813,-0.18,-0.1821,-0.1686,-0.169,-0.1693,-0.1695,-0.1696,-0.1916,-0.1911,-0.1937,-0.1948,-0.1979,-0.1983,-0.1959,-0.2014,-0.2022,-0.2014,-0.2098,-0.1999,-0.198,-0.1724,-0.1619,-0.1544,-0.1684,-0.1614,-0.1629,-0.1648,-0.162,-0.1583,-0.1406,-0.1408,-0.141,-0.1412,-0.1413,0,-0.1809,-0.1812,-0.182,-0.1823,-0.1796,-0.1858,-0.1871,-0.1815,-0.176,-0.1782,-0.1748,-0.1556,-0.1429,-0.1414,-0.1234,-0.1192,-0.1199,-0.1145,-0.1162,-0.12,-0.1234,-0.1188,-0.0858,-0.0856,-0.0854,-0.0853,0,0,-0.1754,-0.1714,-0.1714,-0.1627,-0.1626,-0.154,-0.1511,-0.145,-0.1424,-0.1323,-0.1271,-0.1352,-0.1373,-0.112,-0.1057,-0.0926,-0.1055,-0.0877,-0.1324,-0.1383,-0.1415,-0.1504,-0.1476,0,0,0,0,0]},{"header":{"parameterUnit":"m.s-1","parameterCategory":2,"la1":30.2991,"la2":30.254,"lo1":-89.0895,"lo2":-89.0444,"dy":0.0017,"dx":0.0017,"nx":28,"ny":28,"refTime":"2026-02-11T09:00:00:Z","depth":"2","parameterNumber":3,"parameterNumberName":"V-component_of_CURRENTS"},"data":[0,0,0,0,0,0,0,0,0,0,0,0,0,0,0,0,0,0,0,0,0,0,0,0,0,0,0,0,0,0,0,0,0,0,0,0,0,0,0,0,0,0,0,0,0,0,0,0,0,0,0,0,0,0,0,0,0,0,-0.032,-0.0319,0,-0.0259,-0.0258,-0.0257,-0.021,-0.021,-0.021,-0.021,-0.0109,-0.0107,-0.0104,0,0,0,0,0,0,0,0,0,0,0,0,0,-0.0353,-0.0353,-0.032,-0.0319,-0.0319,-0.0259,-0.0258,-0.0257,-0.0211,-0.021,-0.021,-0.0209,-0.011,-0.0107,-0.0104,0,0,0,0,0,0,0,0,0,0,0,0,0,-0.0319,-0.0353,-0.032,-0.0289,-0.0286,-0.0259,-0.0258,-0.0257,-0.0211,-0.021,-0.021,-0.0209,-0.0111,-0.0107,-0.0104,-0.0091,0,0,-0.0093,-0.0091,0,0,0,0,0,0,0,0,-0.0321,-0.0317,-0.0294,-0.0291,-0.0288,-0.0243,-0.0233,-0.02,-0.0211,-0.0238,-0.021,-0.0209,-0.0151,-0.0144,-0.0133,-0.0086,-0.0082,-0.0092,-0.009,-0.0089,-0.0088,0,0,0,0,0,0,0,-0.0323,-0.032,-0.0294,-0.0294,-0.029,-0.0264,-0.0259,-0.0226,-0.0196,-0.0235,-0.0232,-0.0228,-0.0149,-0.0136,-0.013,-0.008,-0.0092,-0.0089,-0.0087,-0.0086,-0.0002,-0.0002,0,0,0,0,0,0,-0.0336,-0.0322,-0.0296,-0.0293,-0.0305,-0.0264,-0.0258,-0.0257,-0.0197,-0.0188,-0.0228,-0.0226,-0.0142,-0.0134,-0.0126,-0.0105,-0.0089,-0.0085,-0.0083,-0.0002,-0.0002,-0.0002,0,0,0,0,0,0,-0.0337,-0.0335,-0.0299,-0.0307,-0.0301,-0.0264,-0.0263,-0.0256,-0.0243,-0.0192,-0.0182,-0.0223,-0.0142,-0.0131,-0.0099,-0.0101,-0.0084,-0.008,-0.0002,-0.0002,-0.0002,-0.0064,0,0,0,0,0,0,-0.0339,-0.0336,-0.034,-0.0308,-0.0301,-0.029,-0.0263,-0.0255,-0.0242,-0.0238,-0.0185,-0.0175,-0.0141,-0.0105,-0.0096,-0.0095,-0.0078,-0.0002,-0.0002,-0.0002,-0.0062,-0.0066,-0.007,0,0,0,0,0,-0.034,-0.0351,-0.0341,-0.0337,-0.0308,-0.0291,-0.0285,-0.0256,-0.0242,-0.0241,-0.0203,-0.0176,-0.0097,-0.0102,-0.0091,-0.009,-0.0002,-0.0002,-0.0002,-0.0061,-0.0066,-0.007,0,0,0,0,0,0,-0.0368,-0.0347,-0.0334,-0.0338,-0.0319,-0.0284,-0.0281,-0.0261,-0.0231,-0.0226,-0.0177,-0.0165,-0.0138,-0.0105,-0.0112,-0.0064,-0.0044,-0.0042,-0.0093,-0.0097,-0.0101,-0.0112,-0.0075,0,0,0,0,0,-0.0377,-0.0379,-0.0353,-0.0356,-0.0349,-0.0316,-0.0305,-0.0287,-0.0257,-0.0243,-0.0206,-0.0164,-0.0128,-0.0107,-0.0073,-0.0048,-0.001,-0.0038,-0.0042,-0.0046,-0.0047,0.0008,0.0009,-0.0001,-0.0001,-0.0001,0,0,-0.0388,-0.0378,-0.0378,-0.0362,-0.0343,-0.0342,-0.0308,-0.0298,-0.0292,-0.0236,-0.0217,-0.0178,-0.0126,-0.0099,-0.0083,-0.0071,-0.0023,-0.0046,-0.0049,-0.0048,0.0008,0.0009,0.001,-0.0001,-0.0001,-0.0001,0,0,-0.0417,-0.0403,-0.0416,-0.0404,-0.0386,-0.0364,-0.0365,-0.0333,-0.0314,-0.0292,-0.0249,-0.0211,-0.0161,-0.0121,-0.0094,-0.0096,-0.0048,-0.0086,-0.011,-0.0057,-0.0056,-0.0054,-0.001,-0.0004,-0.0084,-0.0084,-0.0084,0,-0.0433,-0.0444,-0.0416,-0.0426,-0.0422,-0.0379,-0.0391,-0.0366,-0.0327,-0.031,-0.0294,-0.0211,-0.017,-0.0125,-0.0127,-0.0105,-0.007,-0.0101,-0.0063,-0.006,-0.0057,-0.0012,-0.0005,-0.0087,-0.0087,-0.0087,-0.0086,0,-0.047,-0.0479,-0.0486,-0.0483,-0.0474,-0.0477,-0.0442,-0.0426,-0.0397,-0.0365,-0.0319,-0.0258,-0.0207,-0.0187,-0.0158,-0.0118,-0.0099,-0.0078,-0.0055,-0.006,-0.0012,-0.0003,-0.0092,-0.009,-0.009,-0.0089,0,0,-0.0507,-0.0513,-0.0515,-0.0527,-0.0506,-0.0504,-0.0491,-0.0465,-0.0452,-0.0402,-0.0376,-0.031,-0.027,-0.0237,-0.0189,-0.014,-0.0094,-0.0108,-0.0103,-0.0071,0.0019,0.0047,0.0059,-0.0068,-0.0067,-0.0066,0.0042,0,-0.0546,-0.0585,-0.0569,-0.0598,-0.0614,-0.0573,-0.0565,-0.0532,-0.0489,-0.0452,-0.0374,-0.0332,-0.029,-0.0265,-0.0211,-0.0124,-0.0073,-0.0126,0.0026,0.003,0.005,0.007,0.0048,0.0144,0.0051,0.0053,0.0054,0,-0.0588,-0.061,-0.065,-0.066,-0.0661,-0.0666,-0.0642,-0.0628,-0.0558,-0.0522,-0.0459,-0.0395,-0.0316,-0.028,-0.0134,-0.0171,-0.0085,-0.0014,-0.0008,0.0047,0.0075,0.0137,0.0164,0.0069,0.0068,0.0067,0.0066,0,-0.0637,-0.0664,-0.0701,-0.0706,-0.0706,-0.071,-0.0701,-0.065,-0.0636,-0.0562,-0.0536,-0.0433,-0.0375,-0.0259,-0.0114,-0.0123,0.0053,0.0061,0.0171,0.0173,0.02,0.0203,0.0169,0.0169,0.0168,0.0168,0.0168,0,-0.0687,-0.0715,-0.0729,-0.0751,-0.0787,-0.0762,-0.0776,-0.0746,-0.0697,-0.0677,-0.0578,-0.0527,-0.0366,-0.0244,-0.012,0.0056,0.0053,0.0173,0.0208,0.0177,0.0176,0.0147,0.0144,0.0172,0.0171,0.017,0.017,0,-0.0735,-0.0743,-0.079,-0.0807,-0.0814,-0.0839,-0.0839,-0.0841,-0.0785,-0.0752,-0.073,-0.0591,-0.0428,-0.0256,-0.0053,0.005,0.0212,0.0278,0.0226,0.0253,0.0295,0.0286,0.0401,0.0403,0.0405,0.0407,0.0408,0,-0.0763,-0.0794,-0.0841,-0.0873,-0.0885,-0.0914,-0.093,-0.0892,-0.0887,-0.0786,-0.077,-0.0605,-0.0474,-0.0166,0.0048,0.0277,0.0277,0.0383,0.0363,0.0299,0.0321,0.031,0.03,0.0373,0.0374,0.0375,0.0375,0,-0.0816,-0.0832,-0.087,-0.0942,-0.0977,-0.1013,-0.1027,-0.1035,-0.0976,-0.0918,-0.0807,-0.0689,-0.039,-0.0132,0.0162,0.0292,0.034,0.0404,0.0371,0.0311,0.028,0.0299,0.0289,0.0381,0.038,0.038,0.038,0.0379,-0.0847,-0.0891,-0.0944,-0.1007,-0.1053,-0.1094,-0.1109,-0.1094,-0.1062,-0.0946,-0.0841,-0.0625,-0.0392,0.0041,0.0242,0.0433,0.0423,0.0469,0.0464,0.0459,0.043,0.0403,0.0522,0.0522,0.0522,0.0522,0.0522,0,-0.0884,-0.0934,-0.1004,-0.1075,-0.1129,-0.1136,-0.1157,-0.113,-0.1072,-0.0934,-0.0789,-0.0501,-0.0212,0.004,0.0344,0.0512,0.0493,0.0538,0.0476,0.047,0.0464,0.0433,0.0527,0.0527,0.0528,0.0528,0,0,-0.0905,-0.0979,-0.1018,-0.1115,-0.1162,-0.1196,-0.1199,-0.1126,-0.1017,-0.0854,-0.0683,-0.0482,-0.0187,0.0025,0.0235,0.0395,0.0389,0.0411,0.039,0.0286,0.0279,0.0409,0.0352,0,0,0,0,0]}],[{"header":{"parameterUnit":"m.s-1","parameterCategory":2,"la1":30.2991,"la2":30.254,"lo1":-89.0895,"lo2":-89.0444,"dy":0.0017,"dx":0.0017,"nx":28,"ny":28,"refTime":"2026-02-11T09:00:00:Z","depth":"4","parameterNumber":2,"parameterNumberName":"U-component_of_CURRENTS"},"data":[0,0,0,0,0,0,0,0,0,0,0,0,0,0,0,0,0,0,0,0,0,0,0,0,0,0,0,0,0,0,0,0,0,0,0,0,0,0,0,0,0,0,0,0,0,0,0,0,0,0,0,0,0,0,0,0,0,0,-0.1579,-0.158,0,-0.1647,-0.1647,-0.1648,-0.1685,-0.1685,-0.1685,-0.1685,-0.1747,-0.1748,-0.175,0,0,0,0,0,0,0,0,0,0,0,0,0,-0.1489,-0.149,-0.1579,-0.158,-0.1581,-0.1647,-0.1648,-0.1648,-0.1685,-0.1685,-0.1685,-0.1686,-0.1746,-0.1748,-0.175,0,0,0,0,0,0,0,0,0,0,0,0,0,-0.1538,-0.149,-0.1579,-0.1608,-0.1612,-0.1647,-0.1648,-0.1649,-0.1685,-0.1685,-0.1685,-0.1686,-0.1746,-0.1748,-0.175,-0.1757,0,0,-0.1757,-0.1758,0,0,0,0,0,0,0,0,-0.1535,-0.1541,-0.1603,-0.1606,-0.161,-0.1659,-0.1638,-0.1685,-0.1685,-0.1655,-0.1685,-0.1686,-0.1718,-0.1722,-0.1732,-0.176,-0.1763,-0.1757,-0.1758,-0.1759,-0.176,0,0,0,0,0,0,0,-0.1532,-0.1538,-0.1604,-0.1604,-0.1608,-0.1621,-0.1628,-0.1647,-0.1683,-0.1658,-0.1661,-0.1671,-0.1719,-0.173,-0.1734,-0.1763,-0.1757,-0.1759,-0.176,-0.1761,-0.1869,-0.187,0,0,0,0,0,0,-0.1526,-0.1535,-0.1602,-0.1607,-0.1574,-0.1622,-0.163,-0.1642,-0.1683,-0.169,-0.1671,-0.1672,-0.1726,-0.1731,-0.1736,-0.1811,-0.1759,-0.1761,-0.1762,-0.1867,-0.1869,-0.1871,0,0,0,0,0,0,-0.1523,-0.1531,-0.16,-0.1573,-0.1583,-0.1623,-0.1636,-0.1643,-0.168,-0.1693,-0.1699,-0.1704,-0.1727,-0.1733,-0.1781,-0.1811,-0.1762,-0.1764,-0.1866,-0.1868,-0.187,-0.1919,0,0,0,0,0,0,-0.152,-0.153,-0.1549,-0.1573,-0.1584,-0.1639,-0.1636,-0.1644,-0.1685,-0.1688,-0.1723,-0.1728,-0.1727,-0.1778,-0.1783,-0.1813,-0.1766,-0.1863,-0.1867,-0.1869,-0.1916,-0.1923,-0.1929,0,0,0,0,0,-0.1517,-0.1539,-0.155,-0.1559,-0.1606,-0.164,-0.1648,-0.1675,-0.1686,-0.1709,-0.1735,-0.1728,-0.18,-0.1781,-0.1787,-0.1818,-0.1862,-0.1866,-0.1869,-0.1913,-0.1922,-0.1929,0,0,0,0,0,0,-0.1512,-0.1545,-0.1558,-0.159,-0.1622,-0.1647,-0.1675,-0.1692,-0.1731,-0.1743,-0.175,-0.1757,-0.1809,-0.1809,-0.1788,-0.1859,-0.1829,-0.1834,-0.186,-0.1869,-0.1876,-0.1867,-0.1768,0,0,0,0,0,-0.1518,-0.1545,-0.1576,-0.1605,-0.1623,-0.1654,-0.1677,-0.1698,-0.1729,-0.1747,-0.1772,-0.1799,-0.1824,-0.1844,-0.1865,-0.1906,-0.1886,-0.193,-0.1937,-0.1942,-0.194,-0.1944,-0.195,-0.1883,-0.1883,-0.1883,0,0,-0.1525,-0.1547,-0.1564,-0.1606,-0.1633,-0.1667,-0.167,-0.1714,-0.1749,-0.1747,-0.181,-0.1828,-0.1841,-0.1887,-0.191,-0.1893,-0.195,-0.1947,-0.1952,-0.1946,-0.1948,-0.1954,-0.196,-0.1885,-0.1885,-0.1884,0,0,-0.1542,-0.1572,-0.1598,-0.1628,-0.1676,-0.1696,-0.1715,-0.176,-0.1789,-0.1845,-0.1852,-0.1888,-0.1934,-0.1946,-0.1956,-0.2015,-0.1987,-0.2028,-0.2056,-0.2061,-0.2066,-0.207,-0.2043,-0.2045,-0.2031,-0.2031,-0.2031,0,-0.1551,-0.1585,-0.1613,-0.1646,-0.1676,-0.1712,-0.1748,-0.1783,-0.1841,-0.1866,-0.1874,-0.1945,-0.1959,-0.2001,-0.2022,-0.203,-0.2017,-0.2022,-0.2068,-0.2072,-0.2075,-0.2047,-0.2048,-0.2033,-0.2033,-0.2033,-0.2033,0,-0.1578,-0.1619,-0.1639,-0.1691,-0.1728,-0.1768,-0.1814,-0.186,-0.19,-0.1927,-0.1991,-0.2014,-0.2049,-0.2065,-0.2062,-0.2101,-0.2077,-0.2075,-0.2042,-0.2084,-0.2052,-0.2052,-0.2037,-0.2036,-0.2036,-0.2035,0,0,-0.156,-0.1642,-0.1652,-0.1684,-0.1757,-0.1785,-0.1851,-0.1909,-0.1946,-0.2007,-0.2048,-0.2102,-0.2112,-0.2124,-0.213,-0.2138,-0.2149,-0.2121,-0.212,-0.2085,-0.2138,-0.1995,-0.198,-0.2157,-0.2158,-0.2158,-0.2102,0,-0.1574,-0.1637,-0.1679,-0.1746,-0.1781,-0.184,-0.1891,-0.1951,-0.2,-0.2048,-0.2084,-0.2126,-0.2135,-0.2152,-0.2167,-0.2154,-0.2154,-0.2163,-0.211,-0.2108,-0.1968,-0.1978,-0.2161,-0.2101,-0.2101,-0.2101,-0.2101,0,-0.1578,-0.1622,-0.1689,-0.1769,-0.1791,-0.184,-0.1921,-0.1974,-0.2046,-0.2082,-0.2133,-0.2155,-0.2188,-0.2184,-0.2188,-0.2195,-0.2172,-0.2157,-0.2154,-0.2001,-0.1964,-0.2054,-0.2101,-0.2101,-0.2101,-0.2101,-0.2101,0,-0.1532,-0.1625,-0.1678,-0.1708,-0.1805,-0.1851,-0.1906,-0.1986,-0.2026,-0.2101,-0.2128,-0.2176,-0.2194,-0.2192,-0.2172,-0.2183,-0.2151,-0.2158,-0.2005,-0.1994,-0.2119,-0.2115,-0.2151,-0.2151,-0.2151,-0.2152,-0.2152,0,-0.151,-0.1555,-0.1666,-0.1691,-0.1753,-0.1832,-0.1896,-0.1957,-0.2033,-0.2061,-0.2139,-0.215,-0.2199,-0.219,-0.217,-0.2071,-0.2149,-0.1997,-0.1969,-0.214,-0.214,-0.2118,-0.2115,-0.2149,-0.215,-0.215,-0.2151,0,-0.1442,-0.152,-0.1583,-0.1694,-0.1733,-0.1775,-0.1883,-0.1915,-0.2005,-0.204,-0.2063,-0.2132,-0.211,-0.2126,-0.2104,-0.2042,-0.1979,-0.1927,-0.2087,-0.2071,-0.1819,-0.182,-0.1742,-0.1737,-0.1732,-0.1728,-0.1725,0,-0.1409,-0.1438,-0.1564,-0.1597,-0.1652,-0.1731,-0.1773,-0.1885,-0.1909,-0.2003,-0.1994,-0.2022,-0.2044,-0.1886,-0.1932,-0.1862,-0.1849,-0.1802,-0.183,-0.1796,-0.1778,-0.1786,-0.1793,-0.1717,-0.1716,-0.1715,-0.1713,0,-0.1335,-0.1396,-0.1444,-0.1512,-0.1571,-0.1622,-0.1691,-0.1694,-0.1798,-0.1904,-0.1858,-0.1835,-0.1802,-0.1776,-0.173,-0.1693,-0.1826,-0.1753,-0.1763,-0.1789,-0.1765,-0.1753,-0.1765,-0.1697,-0.1699,-0.1701,-0.1702,0,-0.1277,-0.129,-0.1359,-0.1401,-0.1471,-0.1475,-0.1534,-0.1548,-0.1586,-0.1693,-0.1671,-0.1704,-0.1772,-0.1686,-0.1647,-0.159,-0.1574,-0.1526,-0.1548,-0.1567,-0.1537,-0.1482,-0.1289,0,0,0,0,0,-0.1206,-0.1202,-0.1237,-0.1272,-0.1332,-0.1365,-0.1455,-0.1513,-0.1617,-0.1534,-0.1596,-0.1556,-0.1498,-0.1525,-0.1427,-0.1572,-0.1584,-0.1453,-0.1542,-0.1607,-0.1625,-0.1609,0,0,0,0,0,0,-0.1157,-0.1186,-0.1191,-0.1147,-0.1142,-0.1186,-0.1234,-0.131,-0.1273,-0.1387,-0.1359,-0.1452,-0.1417,-0.1516,-0.1389,-0.1396,-0.1417,-0.1489,-0.1484,-0.1596,-0.1613,-0.1628,-0.1617,0,0,0,0,0]},{"header":{"parameterUnit":"m.s-1","parameterCategory":2,"la1":30.2991,"la2":30.254,"lo1":-89.0895,"lo2":-89.0444,"dy":0.0017,"dx":0.0017,"nx":28,"ny":28,"refTime":"2026-02-11T09:00:00:Z","depth":"4","parameterNumber":3,"parameterNumberName":"V-component_of_CURRENTS"},"data":[0,0,0,0,0,0,0,0,0,0,0,0,0,0,0,0,0,0,0,0,0,0,0,0,0,0,0,0,0,0,0,0,0,0,0,0,0,0,0,0,0,0,0,0,0,0,0,0,0,0,0,0,0,0,0,0,0,0,-0.0264,-0.0264,0,-0.0227,-0.0226,-0.0226,-0.0196,-0.0196,-0.0195,-0.0195,-0.0122,-0.0121,-0.0119,0,0,0,0,0,0,0,0,0,0,0,0,0,-0.0276,-0.0276,-0.0264,-0.0264,-0.0263,-0.0227,-0.0226,-0.0225,-0.0196,-0.0196,-0.0195,-0.0195,-0.0123,-0.0121,-0.0119,0,0,0,0,0,0,0,0,0,0,0,0,0,-0.0257,-0.0276,-0.0264,-0.0245,-0.0243,-0.0227,-0.0226,-0.0225,-0.0196,-0.0196,-0.0195,-0.0195,-0.0124,-0.0121,-0.0119,-0.0108,0,0,-0.011,-0.0109,0,0,0,0,0,0,0,0,-0.0258,-0.0257,-0.0248,-0.0246,-0.0244,-0.0217,-0.0204,-0.0185,-0.0196,-0.0213,-0.0195,-0.0195,-0.0152,-0.0147,-0.0139,-0.0105,-0.0102,-0.011,-0.0109,-0.0108,-0.0107,0,0,0,0,0,0,0,-0.026,-0.0258,-0.0248,-0.0248,-0.0245,-0.0227,-0.0224,-0.02,-0.0183,-0.0211,-0.0209,-0.0207,-0.015,-0.0142,-0.0137,-0.01,-0.011,-0.0108,-0.0106,-0.0105,-0.0044,-0.0044,0,0,0,0,0,0,-0.0269,-0.0259,-0.0249,-0.0247,-0.0252,-0.0227,-0.0224,-0.0225,-0.0184,-0.0178,-0.0207,-0.0206,-0.0146,-0.014,-0.0134,-0.0122,-0.0108,-0.0105,-0.0104,-0.0044,-0.0044,-0.0044,0,0,0,0,0,0,-0.0269,-0.0268,-0.0251,-0.0253,-0.025,-0.0227,-0.0229,-0.0224,-0.0219,-0.0181,-0.0174,-0.0207,-0.0146,-0.0138,-0.0117,-0.0118,-0.0104,-0.0101,-0.0044,-0.0044,-0.0044,-0.0095,0,0,0,0,0,0,-0.027,-0.0269,-0.0275,-0.0254,-0.025,-0.0248,-0.0229,-0.0224,-0.0218,-0.0216,-0.0178,-0.0171,-0.0145,-0.0121,-0.0114,-0.0115,-0.0099,-0.0044,-0.0044,-0.0044,-0.0093,-0.0096,-0.0099,0,0,0,0,0,-0.027,-0.0281,-0.0276,-0.0275,-0.0259,-0.0249,-0.0245,-0.0227,-0.0218,-0.022,-0.0193,-0.0172,-0.0115,-0.0119,-0.0111,-0.0111,-0.0044,-0.0044,-0.0044,-0.0092,-0.0096,-0.0099,0,0,0,0,0,0,-0.029,-0.0279,-0.0272,-0.0279,-0.0268,-0.0244,-0.0245,-0.0232,-0.0213,-0.0211,-0.0174,-0.0165,-0.0147,-0.0121,-0.0126,-0.0092,-0.0075,-0.0073,-0.0114,-0.0118,-0.0121,-0.0129,-0.0097,0,0,0,0,0,-0.0298,-0.0304,-0.0287,-0.0294,-0.029,-0.0269,-0.0264,-0.0252,-0.0232,-0.0223,-0.0197,-0.0166,-0.014,-0.0124,-0.0099,-0.0081,-0.0049,-0.0074,-0.0077,-0.008,-0.0081,-0.0033,-0.0032,-0.0043,-0.0043,-0.0043,0,0,-0.0308,-0.0303,-0.0306,-0.0298,-0.0288,-0.0289,-0.0265,-0.0262,-0.026,-0.0218,-0.0208,-0.0179,-0.0138,-0.0119,-0.0108,-0.0098,-0.0061,-0.008,-0.0082,-0.0082,-0.0033,-0.0032,-0.0031,-0.0043,-0.0043,-0.0043,0,0,-0.033,-0.0325,-0.0337,-0.0331,-0.0322,-0.0308,-0.031,-0.029,-0.0279,-0.0266,-0.0234,-0.0206,-0.017,-0.0138,-0.0117,-0.012,-0.0081,-0.0113,-0.0132,-0.0086,-0.0085,-0.0083,-0.0048,-0.0043,-0.0111,-0.0111,-0.0111,0,-0.0343,-0.0355,-0.0339,-0.0348,-0.0348,-0.032,-0.0332,-0.0316,-0.0292,-0.0281,-0.0271,-0.0209,-0.0177,-0.0142,-0.0144,-0.0127,-0.0099,-0.0124,-0.0091,-0.0089,-0.0086,-0.005,-0.0044,-0.0114,-0.0113,-0.0113,-0.0113,0,-0.037,-0.0382,-0.0389,-0.0391,-0.0389,-0.0395,-0.0373,-0.0365,-0.0348,-0.0326,-0.0294,-0.0247,-0.0209,-0.0193,-0.017,-0.0137,-0.0122,-0.0104,-0.0085,-0.0088,-0.005,-0.0042,-0.0117,-0.0116,-0.0116,-0.0115,0,0,-0.0394,-0.0407,-0.041,-0.0423,-0.0414,-0.0417,-0.0412,-0.0398,-0.0393,-0.0357,-0.0342,-0.029,-0.026,-0.0234,-0.0195,-0.0153,-0.0114,-0.0127,-0.0123,-0.0098,-0.002,-0.0027,-0.0019,-0.0091,-0.009,-0.0089,-0.0002,0,-0.0421,-0.0455,-0.0449,-0.0478,-0.0493,-0.0471,-0.047,-0.0451,-0.0425,-0.0401,-0.0339,-0.0311,-0.0276,-0.0257,-0.0211,-0.0141,-0.0096,-0.014,-0.0015,-0.0011,-0.0021,-0.0011,-0.0085,0.0003,0.0005,0.0006,0.0007,0,-0.0449,-0.047,-0.0508,-0.0527,-0.0531,-0.0542,-0.0536,-0.0531,-0.0484,-0.0461,-0.0413,-0.0364,-0.0301,-0.0269,-0.0149,-0.018,-0.0106,-0.0046,-0.0041,-0.0024,-0.0004,0.0011,0.0021,0.002,0.0019,0.0018,0.0017,0,-0.0478,-0.0509,-0.0545,-0.0552,-0.0566,-0.0578,-0.058,-0.0552,-0.0548,-0.0497,-0.0482,-0.0398,-0.0355,-0.0255,-0.0138,-0.0142,-0.0,0.0013,0.0081,0.0081,0.0084,0.0081,0.0108,0.0108,0.0108,0.0108,0.0107,0,-0.0506,-0.0535,-0.0566,-0.0586,-0.0627,-0.0619,-0.0644,-0.0629,-0.0602,-0.0595,-0.0518,-0.0484,-0.0348,-0.0252,-0.0146,-0.0015,-0.0003,0.008,0.0106,0.0059,0.0053,0.0089,0.0085,0.0111,0.011,0.011,0.0109,0,-0.0528,-0.0548,-0.0596,-0.063,-0.0645,-0.0675,-0.07,-0.0709,-0.0678,-0.0664,-0.0649,-0.0545,-0.0419,-0.0277,-0.0106,-0.003,0.01,0.0149,0.0083,0.0103,0.0152,0.0145,0.0226,0.0226,0.0227,0.0227,0.0227,0,-0.054,-0.0568,-0.0635,-0.0672,-0.0694,-0.0736,-0.0762,-0.0751,-0.0754,-0.0697,-0.0686,-0.0567,-0.0482,-0.0244,-0.0103,0.01,0.0132,0.019,0.0177,0.0148,0.0166,0.0158,0.015,0.0228,0.0228,0.0228,0.0229,0,-0.0563,-0.0593,-0.0632,-0.0714,-0.0762,-0.0808,-0.0839,-0.0845,-0.0818,-0.0795,-0.0697,-0.0568,-0.0421,-0.0241,-0.008,0.0064,0.0142,0.0196,0.0196,0.0184,0.0152,0.0167,0.0159,0.023,0.023,0.023,0.023,0,-0.0578,-0.0616,-0.0678,-0.0743,-0.0811,-0.0854,-0.087,-0.0855,-0.0845,-0.0771,-0.074,-0.0572,-0.0472,-0.0258,-0.0115,0.0027,0.0061,0.0097,0.0103,0.0103,0.0038,-0.0022,0.0028,0,0,0,0,0,-0.0586,-0.0632,-0.0702,-0.0773,-0.0841,-0.0873,-0.0907,-0.0908,-0.0883,-0.0815,-0.0771,-0.0626,-0.0395,-0.0295,-0.0152,-0.0121,0.0068,0.0048,0.0108,0.0239,0.0237,0.0181,0,0,0,0,0,0,-0.0594,-0.0661,-0.0699,-0.0781,-0.083,-0.0893,-0.0914,-0.0899,-0.085,-0.0804,-0.0675,-0.0601,-0.0373,-0.0468,-0.0149,-0.0108,-0.0053,0.016,0.0162,0.024,0.0238,0.0237,0.0178,0,0,0,0,0]}]]